Location: Brantley
(31.5822°N, 86.2569°W)
Time: 05:01:36
(UTC+00:00)

Courier 1B Rocket - Pass Details

Date: 19 February 2026
Orbit: 920 x 1201 km, 28.2° (Epoch: 5 March)

Event Time Altitude Azimuth Distance (km) Brightness Sun altitude
Rises 02:49:52 0° 267° (W) 3,563 8.7 -42.0°
Reaches altitude 10° 02:52:27 10° 264° (W) 2,638 7.8 -42.6°
Enters shadow 02:54:20 21° 260° (W) 1,991 7.0 -43.0°
Maximum altitude 02:58:43 66° 183° (S) 1,052 - -43.9°
Drops below altitude 10° 03:05:24 10° 103° (ESE) 2,796 - -45.2°
Sets 03:08:12 0° 101° (E) 3,792 - -45.8°
